Location: Beuvrequen
(50.8014°N, 1.6652°E)
Time: 03:42:03
(UTC+00:00)

Cosmos 1125 Rocket - Pass Details

Date: 16 October 2021
Orbit: 758 x 779 km, 74.0° (Epoch: 28 November)

Event Time Altitude Azimuth Distance (km) Brightness Sun altitude
Rises 17:35:35 0° 175° (S) 3,237 6.8 -6.6°
Reaches altitude 10° 17:38:08 10° 167° (SSE) 2,311 5.9 -7.0°
Maximum altitude 17:42:50 35° 103° (ESE) 1,232 4.1 -7.7°
Drops below altitude 10° 17:47:34 10° 39° (NE) 2,314 5.6 -8.5°
Sets 17:50:06 0° 31° (NNE) 3,242 6.4 -8.9°
